Location: Unspecified
(0.0000°N, 0.0000°E)
Time: 18:58:48
(UTC+00:00)

Vanguard 2 Rocket - Pass Details

Date: 23 January 2020
Orbit: 554 x 3327 km, 32.9° (Epoch: 20 February)

Event Time Altitude Azimuth Distance (km) Brightness Sun altitude
Rises 16:21:10 0° 271° (W) 6,965 12.5 26.0°
Reaches altitude 10° 16:26:48 10° 260° (W) 6,158 12.9 24.6°
Maximum altitude 16:42:53 29° 207° (SSW) 4,762 11.5 20.9°
Drops below altitude 10° 16:57:26 10° 153° (SSE) 5,501 10.9 17.5°
Sets 17:02:12 0° 141° (SE) 6,142 10.9 16.4°
